Showing default

EXPLORER 16, 506

Orbit data source: Space-Track

EXPLORER 16, 506 is a payload satellite owned by NASA LaRC (US) in LEO that was launched on Sun, 16 Dec 1962 UTC via an SCOUT X-3 launch vehicle from the Wallops Island (WLPIS). Payload-class satellites include a variety of spacecraft equipped with specific instruments for various scientific and technological missions. These include communications satellites like Starlink; space stations such as the ISS; scientific satellites like the Hubble; Earth observation satellites from companies like Planet Labs, Umbra, and HawkEye 360; GPS; miniature CubeSats for education and research; and military/defense satellites.

Loading next visibility...
Identifier
506, 1962-070A
Orbit
LEO
Country
Flag of USUS
Related business
Manufacturer
NASA LaRC
Mission
Spacecraft
Bus & Motor
S-55, Unknown motor
Mass
100 kg wet, 76 kg dry
Launch date (UTC)
1962-12-16 (63 years ago)
Launch vehicle
SCOUT X-3
Launch site
Wallops Island (WLPIS)
Object type
Payload
Rocket body
Debris
Shape & HBR
Unknown
Radar Cross Section
Medium (>0.1 m² and <1 m²)

Expand to show TLE details & history
Last TLE update: 19 hours ago

TLE from 19 hours ago
0 EXPLORER 16
1 00506U 62070A   26120.77064397  .00000034  00000-0  11536-3 0  9996
2 00506  52.0027 245.7221 0275871 195.7745 163.4452 13.85783555202188
Epoch: 2026-04-30T18:29Z
TLE epoch observation values (Epoch: 2026-04-30T18:29:43.639Z)
Latitude
0.00002°
Longitude
109.57781°
Altitude
1,138.207 km
Speed
7.188 km/s
True Right ascension
16h 22m 53s
True Declination
0° 00' 00"
Sunlit
Object was in full shadow at epoch
Visualization orbit readout
Latitude
Unknown
Longitude
Unknown
Altitude
Unknown
Speed
Unknown
Apparent Right ascension
Unknown
Apparent Declination
Unknown
Sunlit
N/A
Visualization observer readout
Local Sidereal Time
20:52:58
Azimuth
Unknown
Elevation
Unknown
Doppler factor
Unknown
Orbital elements
Apogee altitude
1,145.854 km
Perigee altitude
741.869 km
Semi-major axis
7,321.999 km
Eccentricity
0.02759
Inclination
52.0027°
RAAN
245.7221°
Arg. of periapsis
195.7745°
True anomaly
164.31705°
Mean anomaly
163.4452°
Eccentric anomaly
163.88396°
Mean motion
3.46417 °/min
Orbital period
103.92 mins
BSTAR
0.00011536
Loading maneuver chart data...
Computing Atmospheric mass density...
Loading historical data...
Loading historical data...
Loading historical data...
Loading historical data...
Loading historical data...
Loading historical data...
Loading historical data...
Other satellites on launch #70 in the year 1962 (1962-12-16 UTC)

Documentation

Showing up to 5 results
|